Battlefield restarts after installing Radeon 5970

subinjose

Distinguished
Mar 31, 2010
122
0
18,680
0
Hi...

I've installed Radeon 5970 today, and started battlefield bad company 2. I'm not albe to play the game. When i start it immediately the game ends and one time my system restarted. All happened after installing 5970.

AMD Phenom 2 x4 965

Corsair XMS3 Dominator 4GB 2-Kit Phenom II DDR3 1600MHz CL8-8-8-24

HDD WD Caviar Black 3.5" 1TB SATA-III,7200rpm, 64MB Cache, 8.9ms

PSU Corsair HX850W, 850W

Gigabyte 890GPA-UD3H , ATX, AMD890GX, 5200 MT/s, AM3, 4xDDR3(1866)/1333/1066MHz, PCI-E V2.0, G-LAN, SATA3.0, SATA-RAID 0/1/5/0+1, 2xPCI-E x16 (16x, 8x), VGA onboard, DVI-D, HDMI, FireWire, USB3.0


I tried with Furmark and the score is given below.

Date , GPU Core Clock [MHz] , GPU Memory Clock [MHz] , GPU Temperature [°C] , Fan Speed [%] , GPU Load [%] , Fan Speed [RPM] , GPU Temp. #1 [°C] , GPU Temp. #2 [°C] , GPU Temp. #3 [°C] , VDDC Current [A] , VDDCI Current [A] , VDDC Phase #1 Temperature [°C] , VDDC Phase #2 Temperature [°C] , VDDC Phase #3 Temperature [°C] , VDDCI Phase #1 Temperature [°C] , VDDCI Phase #2 Temperature [°C] , VDDC [V] , VDDCI [V] ,



2010-04-19 13:04:52 , 157.0 , 300.0 , 60.0 , 30 , 7 , 1255 , 60.5 , 62.0 , 61.0 , 1.7 , 5.0 , 62.0 , 60.0 , 61.0 , 0.0 , 51.0 , 0.9500 , 1.1000 ,

2010-04-19 13:04:53 , 157.0 , 300.0 , 60.0 , 30 , 0 , 1242 , 60.5 , 62.0 , 60.5 , 1.7 , 5.0 , 61.0 , 60.0 , 61.0 , 0.0 , 51.0 , 0.9500 , 1.1000 ,

2010-04-19 13:04:54 , 157.0 , 300.0 , 60.0 , 30 , 0 , 1246 , 60.5 , 62.0 , 60.5 , 1.7 , 5.0 , 61.0 , 60.0 , 61.0 , 0.0 , 51.0 , 0.9500 , 1.1000 ,

2010-04-19 13:04:55 , 157.0 , 300.0 , 60.0 , 30 , 0 , 1261 , 60.5 , 62.0 , 60.5 , 1.7 , 5.0 , 62.0 , 60.0 , 61.0 , 0.0 , 51.0 , 0.9500 , 1.1000 ,

2010-04-19 13:04:56 , 730.0 , 1009.4 , 62.0 , 30 , 0 , 1254 , 62.5 , 64.0 , 63.5 , 5.2 , 18.9 , 62.0 , 60.0 , 61.0 , 0.0 , 53.0 , 1.0500 , 1.1000 ,

2010-04-19 13:04:57 , 730.0 , 1009.4 , 65.0 , 30 , 0 , 1241 , 65.0 , 68.0 , 70.0 , 49.6 , 20.5 , 67.0 , 64.0 , 66.0 , 0.0 , 54.0 , 1.0500 , 1.1000 ,

2010-04-19 13:04:58 , 730.0 , 1009.4 , 65.0 , 30 , 0 , 1246 , 66.5 , 69.0 , 71.0 , 48.8 , 20.1 , 71.0 , 69.0 , 69.0 , 0.0 , 55.0 , 1.0500 , 1.1000 ,

2010-04-19 13:04:59 , 730.0 , 1009.4 , 66.0 , 30 , 0 , 1261 , 66.0 , 69.5 , 72.5 , 48.8 , 20.5 , 73.0 , 69.0 , 69.0 , 0.0 , 55.0 , 1.0500 , 1.1000 ,

2010-04-19 13:05:00 , 730.0 , 1009.4 , 66.0 , 30 , 0 , 1251 , 66.5 , 69.5 , 72.5 , 48.8 , 20.1 , 73.0 , 69.0 , 71.0 , 0.0 , 55.0 , 1.0500 , 1.1000 ,

2010-04-19 13:05:01 , 730.0 , 1009.4 , 67.0 , 30 , 0 , 1241 , 66.5 , 71.0 , 72.5 , 50.5 , 20.5 , 73.0 , 71.0 , 72.0 , 0.0 , 55.0 , 1.0500 , 1.1000 ,

2010-04-19 13:05:02 , 730.0 , 1009.4 , 67.0 , 30 , 87 , 1249 , 67.5 , 71.0 , 73.0 , 49.6 , 13.4 , 74.0 , 72.0 , 73.0 , 0.0 , 54.0 , 1.0500 , 1.1000 ,

2010-04-19 13:05:03 , 730.0 , 1009.4 , 67.0 , 30 , 97 , 1568 , 67.5 , 71.0 , 73.0 , 48.8 , 13.4 , 75.0 , 72.0 , 73.0 , 0.0 , 54.0 , 1.0500 , 1.1000 ,

2010-04-19 13:05:04 , 730.0 , 1009.4 , 67.0 , 30 , 98 , 1607 , 67.5 , 70.5 , 73.5 , 50.5 , 13.4 , 76.0 , 74.0 , 74.0 , 0.0 , 54.0 , 1.0500 , 1.1000 ,

2010-04-19 13:05:05 , 730.0 , 1009.4 , 67.0 , 30 , 98 , 1503 , 68.0 , 71.0 , 73.0 , 50.5 , 13.4 , 76.0 , 73.0 , 74.0 , 0.0 , 54.0 , 1.0500 , 1.1000 ,

2010-04-19 13:05:06 , 730.0 , 1009.4 , 68.0 , 30 , 97 , 1501 , 68.0 , 71.5 , 73.0 , 50.5 , 13.4 , 77.0 , 74.0 , 75.0 , 0.0 , 54.0 , 1.0500 , 1.1000 ,

2010-04-19 13:05:07 , 730.0 , 1009.4 , 68.0 , 30 , 98 , 1535 , 68.5 , 71.5 , 73.0 , 47.9 , 13.4 , 77.0 , 75.0 , 75.0 , 0.0 , 54.0 , 1.0500 , 1.1000 ,

2010-04-19 13:05:08 , 730.0 , 1009.4 , 68.0 , 30 , 97 , 1543 , 68.5 , 71.5 , 73.5 , 48.8 , 13.4 , 77.0 , 75.0 , 75.0 , 0.0 , 54.0 , 1.0500 , 1.1000 ,

2010-04-19 13:05:09 , 730.0 , 1009.4 , 68.0 , 30 , 97 , 1545 , 68.5 , 72.0 , 74.0 , 48.8 , 13.4 , 77.0 , 75.0 , 76.0 , 0.0 , 53.0 , 1.0500 , 1.1000 ,

2010-04-19 13:05:10 , 730.0 , 1009.4 , 68.0 , 30 , 97 , 1545 , 68.5 , 72.5 , 73.5 , 47.0 , 13.4 , 78.0 , 75.0 , 76.0 , 0.0 , 54.0 , 1.0500 , 1.1000 ,

2010-04-19 13:05:11 , 730.0 , 1009.4 , 68.0 , 30 , 97 , 1546 , 68.5 , 72.0 , 73.5 , 47.9 , 20.5 , 78.0 , 75.0 , 76.0 , 0.0 , 55.0 , 1.0500 , 1.1000 ,

2010-04-19 13:05:12 , 730.0 , 1009.4 , 69.0 , 30 , 97 , 1545 , 68.5 , 72.0 , 74.5 , 48.8 , 20.5 , 79.0 , 76.0 , 76.0 , 0.0 , 55.0 , 1.0500 , 1.1000 ,

2010-04-19 13:05:13 , 730.0 , 1009.4 , 69.0 , 30 , 96 , 1521 , 69.0 , 72.0 , 74.5 , 47.9 , 20.5 , 79.0 , 76.0 , 77.0 , 0.0 , 55.0 , 1.0500 , 1.1000 ,

2010-04-19 13:05:14 , 730.0 , 1009.4 , 69.0 , 30 , 97 , 1526 , 69.5 , 73.0 , 74.0 , 48.8 , 20.5 , 80.0 , 77.0 , 77.0 , 0.0 , 55.0 , 1.0500 , 1.1000 ,

2010-04-19 13:05:15 , 730.0 , 1009.4 , 69.0 , 30 , 97 , 1541 , 69.5 , 72.5 , 74.5 , 48.8 , 20.5 , 80.0 , 77.0 , 78.0 , 0.0 , 56.0 , 1.0500 , 1.1000 ,

2010-04-19 13:05:16 , 730.0 , 1009.4 , 69.0 , 30 , 97 , 1545 , 70.0 , 73.5 , 75.0 , 48.8 , 20.5 , 80.0 , 77.0 , 78.0 , 0.0 , 56.0 , 1.0500 , 1.1000 ,

2010-04-19 13:05:17 , 730.0 , 1009.4 , 69.0 , 30 , 97 , 1548 , 70.0 , 73.0 , 75.0 , 47.9 , 13.4 , 80.0 , 78.0 , 78.0 , 0.0 , 54.0 , 1.0500 , 1.1000 ,

2010-04-19 13:05:18 , 730.0 , 1009.4 , 69.0 , 30 , 97 , 1548 , 70.0 , 73.5 , 75.0 , 49.6 , 13.4 , 80.0 , 78.0 , 78.0 , 0.0 , 54.0 , 1.0500 , 1.1000 ,

2010-04-19 13:05:19 , 730.0 , 1009.4 , 70.0 , 30 , 97 , 1548 , 70.0 , 73.0 , 75.5 , 48.8 , 13.4 , 81.0 , 78.0 , 79.0 , 0.0 , 54.0 , 1.0500 , 1.1000 ,

2010-04-19 13:05:20 , 730.0 , 1009.4 , 70.0 , 30 , 97 , 1522 , 70.5 , 73.5 , 75.5 , 48.8 , 13.4 , 81.0 , 78.0 , 79.0 , 0.0 , 54.0 , 1.0500 , 1.1000 ,

2010-04-19 13:05:21 , 730.0 , 1009.4 , 70.0 , 30 , 97 , 1512 , 70.5 , 73.5 , 75.0 , 48.8 , 13.8 , 82.0 , 79.0 , 79.0 , 0.0 , 54.0 , 1.0500 , 1.1000 ,

2010-04-19 13:05:22 , 730.0 , 1009.4 , 71.0 , 30 , 97 , 1536 , 71.0 , 73.5 , 75.5 , 47.0 , 20.5 , 81.0 , 79.0 , 79.0 , 0.0 , 55.0 , 1.0500 , 1.1000 ,

2010-04-19 13:05:23 , 730.0 , 1009.4 , 71.0 , 30 , 97 , 1543 , 71.0 , 74.0 , 76.0 , 47.0 , 20.5 , 81.0 , 79.0 , 80.0 , 0.0 , 55.0 , 1.0500 , 1.1000 ,

2010-04-19 13:05:24 , 730.0 , 1009.4 , 71.0 , 30 , 97 , 1545 , 71.0 , 74.0 , 76.5 , 48.8 , 20.5 , 82.0 , 79.0 , 80.0 , 0.0 , 55.0 , 1.0500 , 1.1000 ,

2010-04-19 13:05:25 , 730.0 , 1009.4 , 71.0 , 30 , 97 , 1546 , 71.5 , 74.5 , 76.5 , 48.8 , 20.5 , 82.0 , 80.0 , 80.0 , 0.0 , 56.0 , 1.0500 , 1.1000 ,

2010-04-19 13:05:27 , 730.0 , 1009.4 , 71.0 , 30 , 97 , 1545 , 71.5 , 74.5 , 76.5 , 48.8 , 20.5 , 83.0 , 80.0 , 80.0 , 0.0 , 56.0 , 1.0500 , 1.1000 ,

2010-04-19 13:05:28 , 730.0 , 1009.4 , 71.0 , 30 , 97 , 1546 , 71.0 , 74.0 , 77.0 , 47.9 , 20.5 , 83.0 , 80.0 , 80.0 , 0.0 , 56.0 , 1.0500 , 1.1000 ,

2010-04-19 13:05:29 , 730.0 , 1009.4 , 72.0 , 30 , 97 , 1517 , 72.0 , 75.0 , 77.0 , 48.8 , 13.4 , 83.0 , 80.0 , 81.0 , 0.0 , 55.0 , 1.0500 , 1.1000 ,

2010-04-19 13:05:30 , 730.0 , 1009.4 , 72.0 , 30 , 97 , 1532 , 72.5 , 75.0 , 77.5 , 48.8 , 13.4 , 83.0 , 81.0 , 81.0 , 0.0 , 54.0 , 1.0500 , 1.1000 ,

2010-04-19 13:05:31 , 730.0 , 1009.4 , 71.0 , 30 , 97 , 1544 , 71.5 , 75.0 , 77.0 , 49.6 , 13.4 , 84.0 , 81.0 , 81.0 , 0.0 , 54.0 , 1.0500 , 1.1000 ,

2010-04-19 13:05:32 , 730.0 , 1009.4 , 72.0 , 30 , 97 , 1546 , 72.0 , 75.0 , 77.5 , 48.8 , 13.4 , 84.0 , 81.0 , 81.0 , 0.0 , 54.0 , 1.0500 , 1.1000 ,

2010-04-19 13:05:33 , 730.0 , 1009.4 , 72.0 , 30 , 97 , 1868 , 72.0 , 75.5 , 77.5 , 48.8 , 13.4 , 84.0 , 82.0 , 82.0 , 0.0 , 54.0 , 1.0500 , 1.1000 ,

2010-04-19 13:05:34 , 730.0 , 1009.4 , 72.0 , 30 , 98 , 1958 , 72.5 , 76.0 , 78.0 , 48.8 , 13.4 , 84.0 , 82.0 , 82.0 , 0.0 , 54.0 , 1.0500 , 1.1000 ,

2010-04-19 13:05:35 , 730.0 , 1009.4 , 72.0 , 30 , 98 , 1896 , 72.5 , 75.5 , 77.5 , 47.9 , 13.4 , 84.0 , 82.0 , 82.0 , 0.0 , 54.0 , 1.0500 , 1.1000 ,

2010-04-19 13:05:36 , 730.0 , 1009.4 , 72.0 , 30 , 97 , 1868 , 72.5 , 76.0 , 78.0 , 49.6 , 13.4 , 84.0 , 82.0 , 82.0 , 0.0 , 54.0 , 1.0500 , 1.1000 ,

2010-04-19 13:05:37 , 730.0 , 1009.4 , 73.0 , 30 , 98 , 1862 , 72.5 , 75.0 , 77.5 , 47.9 , 18.0 , 84.0 , 82.0 , 82.0 , 0.0 , 54.0 , 1.0500 , 1.1000 ,

2010-04-19 13:05:38 , 730.0 , 1009.4 , 71.0 , 30 , 98 , 1860 , 71.0 , 73.0 , 74.0 , 9.6 , 19.3 , 83.0 , 80.0 , 80.0 , 0.0 , 55.0 , 1.0500 , 1.1000 ,

2010-04-19 13:05:39 , 730.0 , 1009.4 , 69.0 , 30 , 81 , 1860 , 69.5 , 71.0 , 71.5 , 7.8 , 19.3 , 76.0 , 74.0 , 74.0 , 0.0 , 55.0 , 1.0500 , 1.1000 ,

2010-04-19 13:05:40 , 730.0 , 1009.4 , 69.0 , 30 , 68 , 1862 , 69.5 , 71.0 , 71.0 , 8.7 , 19.3 , 74.0 , 72.0 , 73.0 , 0.0 , 55.0 , 1.0500 , 1.1000 ,

2010-04-19 13:05:41 , 730.0 , 1009.4 , 69.0 , 30 , 49 , 1892 , 69.0 , 71.0 , 70.5 , 7.0 , 19.3 , 73.0 , 71.0 , 72.0 , 0.0 , 55.0 , 1.0500 , 1.1000 ,

2010-04-19 13:05:42 , 730.0 , 1009.4 , 69.0 , 30 , 36 , 1894 , 69.5 , 70.5 , 70.5 , 8.7 , 19.3 , 73.0 , 69.0 , 71.0 , 0.0 , 55.0 , 1.0500 , 1.1000 ,

2010-04-19 13:05:43 , 157.0 , 300.0 , 67.0 , 30 , 0 , 1896 , 67.5 , 69.0 , 68.0 , 1.7 , 12.6 , 73.0 , 70.0 , 70.0 , 0.0 , 54.0 , 0.9500 , 1.1000 ,

2010-04-19 13:05:44 , 157.0 , 300.0 , 66.0 , 30 , 0 , 1898 , 67.0 , 68.5 , 67.0 , 1.7 , 5.5 , 73.0 , 69.0 , 70.0 , 0.0 , 52.0 , 0.9500 , 1.1000 ,


Any ideas ??????
 

RazberyBandit

Distinguished
Dec 25, 2008
2,303
0
19,960
93
Uninstall and reinstall BFBC2. It's probably still "looking" for the old video card.

Which Catalyst driver version did you install? Also, did you also install ATI's Crossfire profiles pack? The 5970 is technically Crossfire on a single PCB.
 

EXT64

Splendid
is this a new build/Windows install or did you replace an existing card?

Is furmark stable?

Do you have the 10.4 Preview Drivers?

Have you checked your ram and CPU stability with Prime95 and memtest86+ 4?

Is anything OC'ed?
 

subinjose

Distinguished
Mar 31, 2010
122
0
18,680
0

The version of Catalyst CC is 10.3. And ATI's Crossfire profiles pack is required ?
 

subinjose

Distinguished
Mar 31, 2010
122
0
18,680
0


It was a new build and but there was an onboard ATI card. I tried to play with that some times. I've installed 5970 today. I think furmark is stable. I ran it for 5 minutes. And the temperature went up to 87 degrees. Is it normal with 5970? Do you think preview driver will help ? I think everything else is ok... Because this problem happened only after installing the new card.
 

subinjose

Distinguished
Mar 31, 2010
122
0
18,680
0


I tried with restarting and disabling the onboard card. But still it has problem. Also i feel like the graphics is not really good which i'd expected from a 5970.
 

davedurg09

Distinguished
Sep 24, 2009
139
0
18,690
4
Im running a 5850 and the 10.4 driver cut my BF2 map load times by more than half which I am really pleased with, hope it helps you with your issue.

Have you also tried other games to see if the problem appears on them also ??.
 

subinjose

Distinguished
Mar 31, 2010
122
0
18,680
0


Ok...I'll try to change the resolution. But you mean changing it only temporarily right ? Otherwise there was no need to invest on a 5970 :)
 

subinjose

Distinguished
Mar 31, 2010
122
0
18,680
0
I tried with the Catalyst CC 10.4. Now i can play the game. But like all others say it's not really smooth always...sometimes the frame rate goes down...
 

subinjose

Distinguished
Mar 31, 2010
122
0
18,680
0
I've installed Crysis... and played the game with high settings.But graphics quality is not good. It's just like my old Radeon 5750. I couldn't see any difference in graphics. What is wrong here... ????????????
 

Similar threads


ASK THE COMMUNITY